Powrót do katalogu

CZ-2C DEB

AktywnySSO
NORAD 40290·DEBRIS·🇨🇳 China

Wystrzelony Oct 27, 2014 z Jiuquan Satellite Launch Center

Loading…

Następne Przeloty (najbliższe 24 godziny)

TLE

ŚwieżeSource: Space-Track

Epoka: Sep 14, 2026, 09:22 UTC

1 40290U 14066E   26257.39086180  .00012030  00000-0  88885-3 0  9995
2 40290  97.9603 237.0315 0035772 249.2563 110.4826 15.02868011633373

Śledź CZ-2C DEB w czasie rzeczywistym z AllMySat

Download on the App Store